TimeCDT,TemperatureF,Dew PointF,Humidity,Sea Level PressureIn,VisibilityMPH,Wind Direction,Wind SpeedMPH,Gust SpeedMPH,PrecipitationIn,Events,Conditions,WindDirDegrees,DateUTC
12:15 AM,69.8,51.8,53,29.86,10.0,NNW,4.6,-,N/A,,Clear,340,2013-06-30 05:15:00
12:35 AM,69.8,51.8,53,29.87,10.0,NNW,4.6,-,N/A,,Clear,340,2013-06-30 05:35:00
12:55 AM,68.0,51.8,56,29.86,10.0,NW,3.5,-,N/A,,Clear,320,2013-06-30 05:55:00
1:15 AM,-9999,-9999,N/A,29.86,10.0,Calm,Calm,-,N/A,,Clear,0,2013-06-30 06:15:00
1:35 AM,66.2,53.6,64,29.86,10.0,NNW,4.6,-,N/A,,Clear,330,2013-06-30 06:35:00
1:55 AM,66.2,53.6,64,29.86,10.0,North,5.8,-,N/A,,Clear,350,2013-06-30 06:55:00
2:16 AM,66.2,53.6,64,29.87,10.0,North,5.8,-,N/A,,Clear,360,2013-06-30 07:16:00
2:35 AM,-9999,-9999,N/A,29.86,10.0,North,6.9,-,N/A,,Clear,360,2013-06-30 07:35:00
2:55 AM,-9999,-9999,N/A,29.87,10.0,North,9.2,-,N/A,,Clear,360,2013-06-30 07:55:00
3:15 AM,-9999,-9999,N/A,29.87,10.0,North,6.9,-,N/A,,Clear,350,2013-06-30 08:15:00
3:35 AM,-9999,-9999,N/A,29.86,10.0,North,6.9,-,N/A,,Clear,360,2013-06-30 08:35:00
3:55 AM,-9999,-9999,N/A,29.86,10.0,North,4.6,-,N/A,,Clear,360,2013-06-30 08:55:00
4:16 AM,-9999,-9999,N/A,29.87,10.0,NNW,4.6,-,N/A,,Clear,340,2013-06-30 09:16:00
4:35 AM,-9999,-9999,N/A,29.88,10.0,NNW,5.8,-,N/A,,Clear,340,2013-06-30 09:35:00
4:55 AM,-9999,-9999,N/A,29.88,10.0,North,5.8,-,N/A,,Clear,350,2013-06-30 09:55:00
5:15 AM,-9999,-9999,N/A,29.88,10.0,North,4.6,-,N/A,,Clear,350,2013-06-30 10:15:00
5:35 AM,-9999,-9999,N/A,29.88,10.0,North,4.6,-,N/A,,Clear,350,2013-06-30 10:35:00
5:55 AM,62.6,55.4,77,29.90,10.0,NNW,3.5,-,N/A,,Clear,340,2013-06-30 10:55:00
6:15 AM,-9999,-9999,N/A,29.89,10.0,North,3.5,-,N/A,,Clear,350,2013-06-30 11:15:00
6:35 AM,-9999,-9999,N/A,29.90,10.0,North,5.8,-,N/A,,Clear,350,2013-06-30 11:35:00
6:55 AM,-9999,-9999,N/A,29.90,10.0,NNW,6.9,-,N/A,,Clear,340,2013-06-30 11:55:00
7:15 AM,64.4,55.4,73,29.91,10.0,North,8.1,-,N/A,,Clear,350,2013-06-30 12:15:00
7:35 AM,64.4,57.2,77,29.92,10.0,North,10.4,-,N/A,,Clear,350,2013-06-30 12:35:00
7:55 AM,66.2,57.2,73,29.92,10.0,North,11.5,-,N/A,,Clear,360,2013-06-30 12:55:00
8:15 AM,66.2,57.2,73,29.92,10.0,NNE,8.1,-,N/A,,Clear,20,2013-06-30 13:15:00
8:35 AM,66.2,57.2,73,29.93,10.0,NNE,11.5,-,N/A,,Scattered Clouds,20,2013-06-30 13:35:00
8:55 AM,66.2,57.2,73,29.93,10.0,North,11.5,-,N/A,,Overcast,10,2013-06-30 13:55:00
9:15 AM,66.2,57.2,73,29.94,10.0,NNE,11.5,-,N/A,,Overcast,20,2013-06-30 14:15:00
9:36 AM,66.2,57.2,73,29.94,10.0,NNW,10.4,-,N/A,,Overcast,340,2013-06-30 14:36:00
9:55 AM,68.0,57.2,68,29.94,10.0,North,8.1,-,N/A,,Mostly Cloudy,360,2013-06-30 14:55:00
10:15 AM,69.8,59.0,68,29.94,10.0,North,11.5,16.1,N/A,,Mostly Cloudy,360,2013-06-30 15:15:00
10:36 AM,69.8,57.2,64,29.95,10.0,North,13.8,-,N/A,,Mostly Cloudy,10,2013-06-30 15:36:00
10:55 AM,71.6,57.2,60,29.94,10.0,North,12.7,18.4,N/A,,Mostly Cloudy,360,2013-06-30 15:55:00
11:15 AM,71.6,57.2,60,29.95,10.0,North,9.2,18.4,N/A,,Mostly Cloudy,10,2013-06-30 16:15:00
11:35 AM,73.4,57.2,57,29.95,10.0,North,11.5,16.1,N/A,,Mostly Cloudy,350,2013-06-30 16:35:00
11:55 AM,73.4,55.4,53,29.95,10.0,North,10.4,-,N/A,,Overcast,10,2013-06-30 16:55:00
12:15 PM,73.4,57.2,57,29.95,10.0,North,9.2,20.7,N/A,,Scattered Clouds,10,2013-06-30 17:15:00
12:35 PM,73.4,55.4,53,29.94,10.0,NNE,12.7,-,N/A,,Mostly Cloudy,20,2013-06-30 17:35:00
12:55 PM,75.2,57.2,53,29.94,10.0,North,11.5,19.6,N/A,,Mostly Cloudy,360,2013-06-30 17:55:00
1:15 PM,75.2,57.2,53,29.94,10.0,North,15.0,18.4,N/A,,Mostly Cloudy,10,2013-06-30 18:15:00
1:35 PM,75.2,55.4,50,29.94,10.0,North,13.8,18.4,N/A,,Mostly Cloudy,360,2013-06-30 18:35:00
1:56 PM,73.4,55.4,53,29.94,10.0,North,11.5,-,N/A,,Mostly Cloudy,10,2013-06-30 18:56:00
2:15 PM,75.2,57.2,53,29.94,10.0,North,11.5,16.1,N/A,,Mostly Cloudy,10,2013-06-30 19:15:00
2:35 PM,77.0,57.2,50,29.93,10.0,North,10.4,18.4,N/A,,Partly Cloudy,360,2013-06-30 19:35:00
2:55 PM,78.8,55.4,44,29.93,10.0,NNW,12.7,20.7,N/A,,Scattered Clouds,340,2013-06-30 19:55:00
3:15 PM,75.2,57.2,53,29.94,10.0,NNE,15.0,18.4,N/A,,Mostly Cloudy,20,2013-06-30 20:15:00
3:35 PM,75.2,57.2,53,29.94,10.0,North,11.5,17.3,N/A,,Scattered Clouds,360,2013-06-30 20:35:00
3:55 PM,75.2,55.4,50,29.94,10.0,North,10.4,16.1,N/A,,Mostly Cloudy,360,2013-06-30 20:55:00
4:15 PM,77.0,57.2,50,29.94,10.0,NNW,11.5,-,N/A,,Mostly Cloudy,330,2013-06-30 21:15:00
4:35 PM,75.2,57.2,53,29.94,10.0,NNE,10.4,16.1,N/A,,Mostly Cloudy,20,2013-06-30 21:35:00
4:55 PM,75.2,57.2,53,29.94,10.0,NNE,11.5,-,N/A,,Mostly Cloudy,20,2013-06-30 21:55:00
5:16 PM,77.0,57.2,50,29.94,10.0,NNE,11.5,-,N/A,,Partly Cloudy,20,2013-06-30 22:16:00
5:35 PM,75.2,57.2,53,29.94,10.0,North,10.4,-,N/A,,Clear,350,2013-06-30 22:35:00
5:55 PM,75.2,57.2,53,29.94,10.0,North,9.2,-,N/A,,Scattered Clouds,360,2013-06-30 22:55:00
6:15 PM,75.2,57.2,53,29.93,10.0,North,12.7,-,N/A,,Mostly Cloudy,360,2013-06-30 23:15:00
6:35 PM,75.2,57.2,53,29.93,10.0,North,10.4,-,N/A,,Mostly Cloudy,350,2013-06-30 23:35:00
6:55 PM,75.2,57.2,53,29.93,10.0,North,12.7,-,N/A,,Scattered Clouds,10,2013-06-30 23:55:00
7:15 PM,73.4,57.2,57,29.94,10.0,North,11.5,-,N/A,,Scattered Clouds,10,2013-07-01 00:15:00
7:35 PM,73.4,55.4,53,29.94,10.0,North,11.5,-,N/A,,Partly Cloudy,360,2013-07-01 00:35:00
7:55 PM,73.4,55.4,53,29.93,10.0,North,9.2,-,N/A,,Clear,10,2013-07-01 00:55:00
8:16 PM,71.6,55.4,57,29.94,10.0,North,6.9,-,N/A,,Clear,10,2013-07-01 01:16:00
8:35 PM,71.6,57.2,60,29.94,10.0,NNE,6.9,-,N/A,,Clear,20,2013-07-01 01:35:00
8:55 PM,69.8,57.2,64,29.95,10.0,North,4.6,-,N/A,,Partly Cloudy,10,2013-07-01 01:55:00
9:15 PM,69.8,57.2,64,29.96,10.0,North,5.8,-,N/A,,Partly Cloudy,10,2013-07-01 02:15:00
9:35 PM,69.8,57.2,64,29.97,10.0,North,5.8,-,N/A,,Partly Cloudy,10,2013-07-01 02:35:00
9:55 PM,69.8,57.2,64,29.98,10.0,NNE,6.9,-,N/A,,Mostly Cloudy,20,2013-07-01 02:55:00
10:15 PM,69.8,57.2,64,29.98,10.0,NNE,6.9,-,N/A,,Scattered Clouds,20,2013-07-01 03:15:00
10:35 PM,68.0,57.2,68,29.99,10.0,NNE,5.8,-,N/A,,Partly Cloudy,30,2013-07-01 03:35:00
10:55 PM,68.0,57.2,68,29.99,10.0,NNE,6.9,-,N/A,,Clear,30,2013-07-01 03:55:00
11:15 PM,68.0,55.4,64,29.98,10.0,NE,8.1,-,N/A,,Clear,40,2013-07-01 04:15:00
11:35 PM,66.2,55.4,68,29.98,10.0,NNE,5.8,-,N/A,,Clear,30,2013-07-01 04:35:00
11:55 PM,66.2,55.4,68,29.98,10.0,NNE,5.8,-,N/A,,Clear,30,2013-07-01 04:55:00